Location: Équennes
(49.7375°N, 1.9622°E)
Time: 10:30:06
(UTC+00:00)

Cosmos 1656 - Pass Details

Date: 09 October 2023
Orbit: 797 x 849 km, 71.1° (Epoch: 10 December)

Event Time Altitude Azimuth Distance (km) Brightness Sun altitude
Rises 22:21:18 0° 324° (NW) 3,324 7.6 -43.7°
Reaches altitude 10° 22:23:56 10° 315° (NW) 2,395 6.6 -43.9°
Enters shadow 22:24:24 12° 312° (NW) 2,242 6.4 -43.9°
